This is the latest recevied weather packets stored in our database for station/object N8BAP. If no packets are shown the sender has not sent any weather packets the latest 10 day(s).
| Time | Temp. | Humidity | Pressure | Rain* | Wind** | Luminosity | Snow |
|---|---|---|---|---|---|---|---|
| 1777672453 | 10° C | 62% | 1020.2 hPa | 0 mm | - | 112 W/m² | - |
| 1777672148 | 10° C | 62% | 1020.1 hPa | 0 mm | - | 144 W/m² | - |
| 1777671843 | 10.56° C | 62% | 1020.1 hPa | 0 mm | - | 211 W/m² | - |
| 1777671539 | 10.56° C | 64% | 1019.9 hPa | 0 mm | - | 305 W/m² | - |
| 1777671236 | 10.56° C | 61% | 1020.2 hPa | 0 mm | - | 317 W/m² | - |
| 1777670932 | 10.56° C | 62% | 1020.1 hPa | 0 mm | - | 358 W/m² | - |
| 1777670629 | 10.56° C | 65% | 1020 hPa | 0 mm | - | 385 W/m² | - |
| 1777670326 | 10° C | 66% | 1020.1 hPa | 0 mm | - | 425 W/m² | - |
| 1777670023 | 9.44° C | 69% | 1020.3 hPa | 0 mm | - | 511 W/m² | - |
| 1777669720 | 10° C | 67% | 1020.3 hPa | 0 mm | - | 262 W/m² | - |
| 1777669418 | 10° C | 67% | 1020.1 hPa | 0 mm | - | 194 W/m² | - |
| 1777669113 | 10° C | 66% | 1020.1 hPa | 0 mm | - | 281 W/m² | - |
| 1777668811 | 10.56° C | 65% | 1019.8 hPa | 0 mm | - | 244 W/m² | - |
| 1777668507 | 10.56° C | 64% | 1020.1 hPa | 0 mm | - | 646 W/m² | - |
| 1777668204 | 11.11° C | 61% | 1019.7 hPa | 0 mm | - | 509 W/m² | - |
| 1777667900 | 10.56° C | 68% | 1019.6 hPa | 0 mm | - | 546 W/m² | - |
| 1777667598 | 10° C | 69% | 1019.5 hPa | 0 mm | - | 552 W/m² | - |
| 1777667295 | 10° C | 67% | 1019.4 hPa | 0 mm | - | 185 W/m² | - |
| 1777666991 | 10.56° C | 67% | 1019.5 hPa | 0 mm | - | 173 W/m² | - |
| 1777666689 | 10.56° C | 68% | 1019.2 hPa | 0 mm | - | 232 W/m² | - |
| 1777666385 | 11.11° C | 68% | 1019.2 hPa | 0 mm | - | 214 W/m² | - |
| 1777666081 | 11.67° C | 64% | 1019.3 hPa | 0 mm | - | 301 W/m² | - |
| 1777665779 | 11.67° C | 64% | 1019.3 hPa | 0 mm | - | 369 W/m² | - |
| 1777665476 | 11.67° C | 63% | 1019.3 hPa | 0 mm | - | 221 W/m² | - |
| 1777665172 | 11.67° C | 69% | 1019.1 hPa | 0 mm | - | 771 W/m² | - |
* Rain latest hour (hover to see other rain measurements)
** Current wind speed in m/s (hover to see current wind gust speed)